Date String (YYYY-MM-DD hh:mm:ss) UTC,Instrument flags,Ambient pressure (hPa),Sample flow (lpm),Bypass flow (lpm),Sample temperature (°C),Ambient temperature (°C),ASC tube jacket temperature (°C),LED temperature (°C),Box temperature (°C),Sample RH (%),Span deviation,Mass concentration (μg/m³),Mass concentration (μg/m³),Mass concentration (μg/m³)
DateTimeUTC,F1_M11,P_M11,Q1_M11,Q2_M11,T1_M11,T2_M11,T3_M11,T4_M11,T5_M11,U1_M11,ZSPAN_M11,X0_M11,X2_M11,X1_M11
2022-01-03 14:00:00,,0826.1,5.01,0.00,21.9,21.3,00.0,30.9,23.5,09.1,0000.0,0000.03,0000.02,0000.00
2022-01-03 14:01:00,,0826.1,5.00,0.00,21.9,21.2,00.0,30.9,23.5,09.1,0000.0,0000.03,0000.02,0000.00
2022-01-03 14:02:00,,0826.1,5.01,0.00,21.8,21.2,00.0,30.9,23.4,09.5,0000.0,0000.03,0000.02,0000.00
2022-01-03 14:03:00,,0826.2,4.99,0.00,21.8,21.2,00.0,30.9,23.4,09.8,0000.0,0000.03,0000.02,0000.00
2022-01-03 14:04:00,,0826.2,5.00,0.00,21.8,21.1,00.0,30.9,23.3,09.8,0000.0,0000.03,0000.02,0000.00
2022-01-03 14:05:00,,0826.2,5.00,0.00,21.8,21.1,00.0,30.9,23.3,09.5,0000.0,0000.03,0000.02,0000.00
2022-01-03 14:06:00,,0826.3,5.00,0.00,21.8,21.1,00.0,30.9,23.3,09.6,0000.0,0000.01,0000.01,0000.00
2022-01-03 14:07:00,,0826.3,5.00,0.00,21.8,21.1,00.0,30.8,23.3,09.6,0000.0,0000.07,0000.03,0000.00
2022-01-03 14:08:00,,0826.3,5.01,0.00,21.8,21.1,00.0,30.8,23.4,09.7,0000.0,0000.07,0000.03,0000.00
2022-01-03 14:09:00,,0826.4,4.99,0.00,21.8,21.1,00.0,30.8,23.4,10.3,0000.0,0000.07,0000.03,0000.00
2022-01-03 14:10:00,,0826.4,5.01,0.00,21.8,21.5,00.0,30.9,23.5,11.0,0000.0,0000.07,0000.03,0000.00
2022-01-03 14:11:00,,0826.4,4.98,0.00,21.9,22.4,00.0,30.9,23.8,10.8,0000.0,0000.07,0000.03,0000.00
2022-01-03 14:12:00,,0826.5,5.02,0.00,22.1,23.2,00.0,31.0,24.1,09.9,0000.0,0000.07,0000.03,0000.00
2022-01-03 14:13:00,,0826.3,4.99,0.00,22.2,23.1,00.0,31.0,24.2,09.1,0000.0,0000.10,0000.04,0000.00
2022-01-03 14:14:00,,0826.2,5.01,0.00,22.2,22.8,00.0,31.0,24.1,08.8,0000.0,0000.15,0000.07,0000.00
2022-01-03 14:15:00,,0826.3,5.00,0.00,22.2,22.6,00.0,31.0,24.1,08.6,0000.0,0000.15,0000.06,0000.00
2022-01-03 14:16:00,,0826.4,5.00,0.00,22.2,22.4,00.0,31.1,24.0,08.9,0000.0,0000.15,0000.06,0000.00
2022-01-03 14:17:00,,0826.5,5.01,0.00,22.2,22.1,00.0,31.1,23.9,09.2,0000.0,0000.14,0000.06,0000.00
2022-01-03 14:18:00,,0826.4,5.01,0.00,22.1,21.8,00.0,31.1,23.8,08.9,0000.0,0000.08,0000.04,0000.00
2022-01-03 14:19:00,,0826.3,4.99,0.00,22.1,21.6,00.0,31.1,23.7,08.4,0000.0,0000.08,0000.03,0000.00
2022-01-03 14:20:00,,0826.3,5.00,0.00,22.1,21.6,00.0,31.1,23.7,08.2,0000.0,0000.08,0000.03,0000.00
2022-01-03 14:21:00,,0826.3,5.00,0.00,22.1,21.5,00.0,31.1,23.8,08.5,0000.0,0000.08,0000.03,0000.00
2022-01-03 14:22:00,,0826.3,4.99,0.00,22.1,21.6,00.0,31.1,23.8,08.3,0000.0,0000.08,0000.03,0000.00
2022-01-03 14:23:00,,0826.3,5.00,0.00,22.1,21.6,00.0,31.1,23.8,08.4,0000.0,0000.07,0000.03,0000.00
2022-01-03 14:24:00,,0826.3,5.00,0.00,22.1,21.5,00.0,31.1,23.7,08.7,0000.0,0000.04,0000.02,0000.00
2022-01-03 14:25:00,,0826.4,5.01,0.00,22.0,21.4,00.0,31.1,23.7,08.5,0000.0,0000.00,0000.00,0000.00
2022-01-03 14:26:00,,0826.4,5.00,0.00,22.0,21.4,00.0,31.1,23.7,08.6,0000.0,0000.00,0000.00,0000.00
2022-01-03 14:27:00,,0826.2,5.00,0.00,22.0,21.4,00.0,31.1,23.6,08.5,0000.0,0000.00,0000.00,0000.00
2022-01-03 14:28:00,,0826.3,5.02,0.00,22.0,21.4,00.0,31.1,23.6,08.4,0000.0,0000.00,0000.00,0000.00
2022-01-03 14:29:00,,0826.3,5.00,0.00,22.0,21.4,00.0,31.0,23.6,08.4,0000.0,0000.00,0000.00,0000.00
2022-01-03 14:30:00,,0826.5,5.00,0.00,22.0,21.4,00.0,31.0,23.6,08.3,0000.0,0000.00,0000.00,0000.00
2022-01-03 14:31:00,,0826.3,4.99,0.00,22.0,21.4,00.0,31.0,23.6,08.6,0000.0,0000.03,0000.02,0000.00
2022-01-03 14:32:00,,0826.3,5.02,0.00,22.0,21.4,00.0,31.0,23.6,09.4,0000.0,0000.03,0000.02,0000.00
2022-01-03 14:33:00,,0826.2,4.99,0.00,22.0,21.4,00.0,31.0,23.6,09.1,0000.0,0000.03,0000.02,0000.00
2022-01-03 14:34:00,,0826.2,5.00,0.00,22.0,21.3,00.0,31.0,23.6,08.9,0000.0,0000.13,0000.03,0000.00
2022-01-03 14:35:00,,0826.2,5.00,0.00,21.9,21.3,00.0,31.0,23.6,08.7,0000.0,0000.14,0000.03,0000.00
2022-01-03 14:36:00,,0826.2,4.99,0.00,21.9,21.3,00.0,31.0,23.6,08.3,0000.0,0000.14,0000.03,0000.00
2022-01-03 14:37:00,,0826.2,5.02,0.00,21.9,21.3,00.0,31.0,23.6,07.9,0000.0,0000.16,0000.03,0000.00
2022-01-03 14:38:00,,0826.2,4.99,0.00,21.9,21.3,00.0,31.0,23.6,07.8,0000.0,0000.24,0000.04,0000.00
2022-01-03 14:39:00,,0826.1,5.01,0.00,21.9,21.3,00.0,31.0,23.6,08.1,0000.0,0000.24,0000.04,0000.00
2022-01-03 14:40:00,,0826.0,5.00,0.00,21.9,21.3,00.0,31.0,23.6,08.1,0000.0,0000.24,0000.04,0000.00
2022-01-03 14:41:00,,0826.1,5.00,0.00,21.9,21.3,00.0,31.0,23.6,08.3,0000.0,0000.24,0000.04,0000.00
2022-01-03 14:42:00,,0826.2,5.00,0.00,22.0,21.7,00.0,31.0,23.7,08.6,0000.0,0000.22,0000.02,0000.00
2022-01-03 14:43:00,,0826.2,4.99,0.00,22.1,22.6,00.0,31.0,24.0,08.5,0000.0,0000.22,0000.02,0000.00
2022-01-03 14:44:00,,0826.2,5.02,0.00,22.3,23.0,00.0,31.1,24.2,08.3,0000.0,0000.22,0000.02,0000.00
2022-01-03 14:45:00,,0826.2,5.01,0.00,22.3,22.8,00.0,31.1,24.2,08.6,0000.0,0000.14,0000.02,0000.00
2022-01-03 14:46:00,,0826.2,5.00,0.00,22.3,22.6,00.0,31.1,24.2,08.3,0000.0,0000.11,0000.01,0000.00
2022-01-03 14:47:00,,0826.2,5.00,0.00,22.3,22.4,00.0,31.2,24.1,08.6,0000.0,0000.19,0000.03,0000.00
2022-01-03 14:48:00,,0826.2,4.99,0.00,22.3,22.2,00.0,31.2,24.0,08.0,0000.0,0001.46,0000.03,0000.00
2022-01-03 14:49:00,,0826.2,5.01,0.00,22.3,22.1,00.0,31.2,24.0,08.4,0000.0,0001.36,0000.02,0000.00
2022-01-03 14:50:00,,0826.1,5.00,0.00,22.3,21.9,00.0,31.2,23.9,08.6,0000.0,0001.36,0000.02,0000.00
2022-01-03 14:51:00,,0826.2,4.99,0.00,22.3,21.8,00.0,31.2,23.9,08.9,0000.0,0001.36,0000.02,0000.00
2022-01-03 14:52:00,,0826.2,5.01,0.00,22.2,21.8,00.0,31.2,23.9,08.9,0000.0,0001.40,0000.02,0000.00
2022-01-03 14:53:00,,0826.2,4.99,0.00,22.2,21.7,00.0,31.2,23.9,08.9,0000.0,0002.33,0000.02,0000.00
2022-01-03 14:54:00,,0826.2,5.00,0.00,22.2,21.7,00.0,31.2,23.9,09.1,0000.0,0003.31,0000.02,0000.00
2022-01-03 14:55:00,,0826.2,5.00,0.00,22.2,21.6,00.0,31.2,23.9,09.2,0000.0,0003.33,0000.03,0000.00
2022-01-03 14:56:00,,0826.2,5.01,0.00,22.2,21.6,00.0,31.2,23.9,09.0,0000.0,0003.34,0000.03,0000.00
2022-01-03 14:57:00,,0826.2,5.00,0.00,22.2,21.6,00.0,31.2,23.8,08.9,0000.0,0003.36,0000.04,0000.00
2022-01-03 14:58:00,,0826.2,4.99,0.00,22.2,21.6,00.0,31.2,23.8,08.7,0000.0,0003.33,0000.03,0000.00
2022-01-03 14:59:00,,0826.1,4.99,0.00,22.2,21.5,00.0,31.2,23.8,09.1,0000.0,0002.14,0000.03,0000.00
